Regional Weather Roundup
Issued by NWS

Home | Current Version | Previous Version | Text Only | Print | Product List | Glossary Off
Versions: 1 2 3 4 5 6 7 8 9 10 11 12 13 14 15 16 17 18 19 20 21 22 23 24 25 26 27 28 29 30 31 32 33 34 35 36 37 38 39 40 41 42 43 44 45 46 47 48 49 50

000
ASUS43 KFSD 050302
RWRSD

WEATHER ROUNDUP FOR SOUTH DAKOTA
NATIONAL WEATHER SERVICE SIOUX FALLS SD
1000 PM CDT SAT JUL 04 2015

NOTE: "FAIR" INDICATES FEW OR NO CLOUDS BELOW 12,000 FEET WITH NO
SIGNIFICANT WEATHER AND/OR OBSTRUCTIONS TO VISIBILITY.


SDZ001>005-009-010-012>017-050400-
NORTHWEST AND NORTH CENTRAL SOUTH DAKOTA

CITY           SKY/WX    TMP DP  RH WIND       PRES   REMARKS
BUFFALO          N/A     79  50  36 E10       29.72F
FAITH            N/A     78  65  63 NE6       29.77S
MOBRIDGE       CLOUDY    78  73  84 SE8       29.73R
$$

SDZ012>016-024>037-041>051-057-063-072>074-050400-
SOUTHWEST AND SOUTH CENTRAL SOUTH DAKOTA

CITY           SKY/WX    TMP DP  RH WIND       PRES   REMARKS
RAPID CTY ARPT CLEAR     73  67  81 N3        29.81R
PIERRE         MOCLDY    80  69  69 SE14      29.72R
CUSTER         CLEAR     71  54  54 NE3       30.01R
ELLSWORTH AFB  CLEAR     82  64  54 SW3       29.81R
PHILIP         CLEAR     80  65  59 CALM      29.75R
PINE RIDGE     CLEAR     78  64  61 NW3       29.82R
WINNER         FAIR      84  63  49 S17G25    29.78R
$$

SDZ004>011-016>023-039-040-050400-
NORTHEAST SOUTH DAKOTA

CITY           SKY/WX    TMP DP  RH WIND       PRES   REMARKS
ABERDEEN       MOCLDY    77  66  68 SE10      29.79R
WATERTOWN      MOCLDY    74  66  76 S12       29.86R
BROOKINGS      PTCLDY    73  63  68 S10       29.89R
SISSETON         N/A     73  65  75 S9        29.81R
$$

SDZ017-020-022-023-036>040-048>070-050400-
SOUTHEAST SOUTH DAKOTA

CITY           SKY/WX    TMP DP  RH WIND       PRES   REMARKS
SIOUX FALLS    PTCLDY    74  64  71 S10       29.88R
HURON          PTCLDY    76  67  73 SE12      29.79R
CHAMBERLAIN    CLOUDY    76  69  80 SE9       29.78R
MITCHELL       CLEAR     76  67  73 SE16      29.82R
YANKTON        PTCLDY    73  64  73 SE8       29.85S
$$

ABBREVIATIONS USED IN REMARKS
   TC - TEMPERATURE IN CELSIUS
  WCI - WIND CHILL INDEX
   HX - HEAT INDEX
  VSB - VISIBILITY



USA.gov is the U.S. government's official web portal to all federal, state and local government web resources and services.